Inquirer Daily News

Weather

Get conditions and forecasts for any City, State, ZIP code or Country:  
Northeast Philadelphia, PA
on Friday, December 21, 2012

Friday
Previous Day Next Day
Daily Summary
 ActualAverage (KTTN)Record (KTTN)
Temperature
Mean Temperature °F 34°F  
Max Temperature 57°F 41°F 68°F (1895)
Min Temperature 36°F 26°F -2°F (1942)
Degree Days
Heating Degree Days 18 31  
Month to date heating degree days 593  
Since 1 July heating degree days 1569  
Cooling Degree Days 0 0  
Month to date cooling degree days 0  
Year to date cooling degree days 965  
Moisture
Dew Point 42°F   
Average Humidity 82    
Maximum Humidity 100    
Minimum Humidity 57    
Precipitation
Precipitation 1.21 in 0.11 in 1.40 in (1977)
Month to date precipitation 2.74  
Year to date precipitation 45.48  
Wind
Wind Speed 18 mph   
Max Wind Speed 24 mph   
Max Gust Speed 39 mph   
Visibility 7 miles   
Events Rain   

Key: T is trace of precipitation, MM is missing value
Source: NWS Daily Summary
Time(EST)TemperatureDew PointHumidity Pressure Visibility Wind DirectionWind SpeedGust SpeedPrecipitationEvents Conditions
12:33 AM 48.2°F 46.4°F 93% 29.61 in 9.0 miles ESE 24.2 mph 31.1 mph 0.03 in Rain Light Rain
12:49 AM 48.2°F 46.4°F 93% 29.59 in 5.0 miles ESE 16.1 mph 29.9 mph 0.07 in Rain Rain
12:54 AM 48.9°F 46.9°F 93% 29.60 in 6.0 miles SE 19.6 mph 28.8 mph 0.08 in Rain Rain
1:54 AM 51.1°F 48.9°F 92% 29.53 in 5.0 miles SE 17.3 mph 28.8 mph 0.21 in Rain Rain
2:54 AM 53.1°F 51.1°F 93% 29.44 in 7.0 miles SE 23.0 mph 35.7 mph 0.11 in Rain Rain
3:54 AM 55.0°F 53.1°F 93% 29.31 in 4.0 miles SE 24.2 mph 38.0 mph 0.13 in Rain Rain
4:54 AM 55.9°F 55.0°F 97% 29.24 in 4.0 miles SSE 18.4 mph 34.5 mph 0.11 in Rain Rain
5:10 AM 55.4°F 55.4°F 100% 29.22 in 2.5 miles SE 21.9 mph 39.1 mph 0.07 in Rain Rain
5:32 AM 57.2°F 55.4°F 94% 29.21 in 3.0 miles SSE 17.3 mph 32.2 mph 0.16 in Rain Rain
5:35 AM 57.2°F 55.4°F 94% 29.20 in 2.5 miles SSE 13.8 mph 25.3 mph 0.18 in Rain Heavy Rain
5:54 AM 57.0°F 55.9°F 96% 29.18 in 3.0 miles SSE 17.3 mph 35.7 mph 0.27 in Rain Rain
6:15 AM 57.2°F 55.4°F 94% 29.16 in 2.5 miles SSE 17.3 mph 32.2 mph 0.06 in Rain Rain
6:24 AM 57.2°F 55.4°F 94% 29.16 in 2.5 miles SSE 12.7 mph 28.8 mph 0.09 in Rain Rain
6:28 AM 57.2°F 55.4°F 94% 29.16 in 3.0 miles South 12.7 mph 21.9 mph 0.09 in Rain Rain
6:40 AM 57.2°F 55.4°F 94% 29.18 in 2.0 miles SW 13.8 mph 21.9 mph 0.16 in Rain Heavy Rain
6:42 AM 55.4°F 55.4°F 100% 29.19 in 1.5 miles WSW 18.4 mph 26.5 mph 0.18 in Rain Heavy Rain
6:52 AM 53.6°F 53.6°F 100% 29.18 in 2.0 miles SW 11.5 mph 25.3 mph 0.28 in Rain Rain
6:54 AM 54.0°F 53.1°F 97% 29.18 in 2.5 miles WSW 11.5 mph 19.6 mph 0.29 in Rain Rain
7:00 AM 51.8°F 51.8°F 100% 29.20 in 5.0 miles West 16.1 mph 29.9 mph 0.00 in Rain Light Rain
7:08 AM 51.8°F 48.2°F 88% 29.19 in 9.0 miles WNW 15.0 mph 25.3 mph 0.01 in Rain Light Rain
7:45 AM 48.2°F 44.6°F 87% 29.20 in 10.0 miles West 12.7 mph 20.7 mph 0.01 in Rain Light Rain
7:54 AM 46.0°F 44.1°F 93% 29.23 in 10.0 miles West 17.3 mph 29.9 mph 0.01 in Rain Light Rain
8:13 AM 44.6°F 41.0°F 87% 29.23 in 10.0 miles WNW 18.4 mph 26.5 mph 0.00 in   Overcast
8:54 AM 44.1°F 39.9°F 85% 29.25 in 10.0 miles West 17.3 mph 24.2 mph 0.00 in   Overcast
9:12 AM 44.6°F 37.4°F 76% 29.27 in 10.0 miles West 13.8 mph 27.6 mph N/A   Overcast
9:41 AM 44.6°F 37.4°F 76% 29.29 in 10.0 miles WNW 13.8 mph 23.0 mph 0.00 in Rain Light Rain
9:54 AM 43.0°F 36.0°F 76% 29.30 in 10.0 miles West 19.6 mph 31.1 mph 0.00 in Rain Light Rain
10:10 AM 42.8°F 33.8°F 70% 29.30 in 10.0 miles West 17.3 mph 28.8 mph 0.00 in Rain Light Rain
10:54 AM 42.1°F 33.1°F 70% 29.30 in 10.0 miles West 18.4 mph 29.9 mph 0.00 in Rain Light Rain
11:54 AM 42.1°F 30.0°F 62% 29.29 in 10.0 miles West 23.0 mph 29.9 mph 0.00 in   Overcast
12:54 PM 41.0°F 28.0°F 60% 29.30 in 10.0 miles West 16.1 mph 25.3 mph N/A   Overcast
1:54 PM 39.9°F 27.0°F 60% 29.31 in 10.0 miles West 12.7 mph - 0.00 in   Overcast
2:54 PM 39.9°F 26.1°F 58% 29.33 in 10.0 miles West 16.1 mph 29.9 mph N/A   Overcast
3:54 PM 39.9°F 26.1°F 58% 29.34 in 10.0 miles West 18.4 mph 24.2 mph N/A   Overcast
4:54 PM 39.0°F 25.0°F 57% 29.36 in 10.0 miles West 24.2 mph 28.8 mph N/A   Overcast
5:54 PM 39.0°F 25.0°F 57% 29.38 in 10.0 miles WSW 13.8 mph 25.3 mph N/A   Overcast
6:54 PM 37.9°F 25.0°F 60% 29.39 in 10.0 miles WSW 16.1 mph - N/A   Overcast
7:54 PM 37.0°F 25.0°F 62% 29.40 in 10.0 miles WSW 16.1 mph 25.3 mph N/A   Overcast
8:54 PM 37.0°F 26.1°F 65% 29.41 in 10.0 miles West 18.4 mph 28.8 mph N/A   Overcast
9:54 PM 36.0°F 27.0°F 70% 29.42 in 10.0 miles West 15.0 mph 23.0 mph N/A   Overcast
10:54 PM 37.0°F 27.0°F 67% 29.42 in 10.0 miles WSW 15.0 mph - N/A   Overcast
11:54 PM 36.0°F 28.0°F 73% 29.42 in 10.0 miles West 16.1 mph 27.6 mph N/A   Overcast
Astronomy
Sunrise:07:18 AM (EST) Moon Rise:12:23 PM (EST)12/21
Sunset:04:38 PM (EST) Moon Set:01:03 AM (EST)12/21
Moon Phase
Dec. 21 Dec. 28 Jan. 04 Jan. 11 Jan. 18

Copyright © 2014 The Weather Underground, Inc.